,,PA_Meas_PMT16A,,PR_Meas_QMR101_102,,RH_Meas_QMH101,,SR_Meas_QMS101,,TA_Meas_QMH101,,GenWind,,GenWind,
time,status,PA,status,PR,status,RH,status,SR,status,TA,status,DirAvg,status,SpdAvg,
2010-12-09, 00:00:04,VALID,917.255,VALID,0,VALID,95.0259,VALID,0.107441,VALID,20.8699,VALID,1,VALID,0.724609,
2010-12-09, 00:01:04,VALID,917.229,VALID,0,VALID,94.9725,VALID,0.107441,VALID,20.9105,VALID,1,VALID,0.507813,
2010-12-09, 00:02:04,VALID,917.213,VALID,0,VALID,94.9344,VALID,0.107441,VALID,20.9089,VALID,1,VALID,0.591406,
2010-12-09, 00:03:04,VALID,917.21,VALID,0,VALID,94.9039,VALID,0.107441,VALID,20.9089,VALID,1,VALID,0.705469,
2010-12-09, 00:04:04,VALID,917.201,VALID,0,VALID,94.8353,VALID,0.107441,VALID,20.9284,VALID,1,VALID,0.673047,
2010-12-09, 00:05:04,VALID,917.236,VALID,0,VALID,94.9496,VALID,0.107441,VALID,20.9885,VALID,1,VALID,0.69375,
2010-12-09, 00:06:04,VALID,917.25,VALID,0,VALID,94.9115,VALID,0,VALID,20.9089,VALID,1,VALID,0.355469,
2010-12-09, 00:07:04,VALID,917.221,VALID,0,VALID,94.9268,VALID,0.107441,VALID,20.9089,VALID,1,VALID,0.366016,
2010-12-09, 00:08:04,VALID,917.198,VALID,0,VALID,94.8124,VALID,0.107441,VALID,20.9284,VALID,1,VALID,0.0824219,
2010-12-09, 00:09:04,VALID,917.194,VALID,0,VALID,94.7896,VALID,0.107441,VALID,20.8894,VALID,1,VALID,0.255469,
2010-12-09, 00:10:04,VALID,917.16,VALID,0,VALID,94.8505,VALID,0.107441,VALID,20.9885,VALID,1,VALID,0.205859,
2010-12-09, 00:11:04,VALID,917.183,VALID,0,VALID,94.8887,VALID,0,VALID,20.9674,VALID,1,VALID,0,
2010-12-09, 00:12:04,VALID,917.174,VALID,0,VALID,94.6905,VALID,0,VALID,20.9885,VALID,1,VALID,0.233594,
2010-12-09, 00:13:04,VALID,917.19,VALID,0,VALID,94.6295,VALID,0,VALID,20.9885,VALID,1,VALID,0,
2010-12-09, 00:14:04,VALID,917.132,VALID,0,VALID,94.5913,VALID,0,VALID,20.9495,VALID,1,VALID,0,
2010-12-09, 00:15:04,VALID,917.136,VALID,0,VALID,94.538,VALID,0,VALID,20.9511,VALID,1,VALID,0,
2010-12-09, 00:16:04,VALID,917.144,VALID,0,VALID,94.477,VALID,0,VALID,20.9105,VALID,1,VALID,0,
2010-12-09, 00:17:04,VALID,917.124,VALID,0,VALID,94.6218,VALID,0,VALID,20.873,VALID,1,VALID,0.151562,
2010-12-09, 00:18:04,VALID,917.103,VALID,0,VALID,94.7133,VALID,0,VALID,20.8925,VALID,1,VALID,0,
2010-12-09, 00:19:04,VALID,917.129,VALID,0,VALID,94.8277,VALID,0,VALID,20.873,VALID,1,VALID,0,
2010-12-09, 00:20:04,VALID,917.14,VALID,0,VALID,94.9268,VALID,0,VALID,20.8519,VALID,1,VALID,0.00390625,
2010-12-09, 00:21:04,VALID,917.154,VALID,0,VALID,94.8277,VALID,0,VALID,20.8714,VALID,1,VALID,0,
2010-12-09, 00:22:04,VALID,917.117,VALID,0,VALID,94.8048,VALID,0,VALID,20.8535,VALID,1,VALID,0,
2010-12-09, 00:23:04,VALID,917.081,VALID,0,VALID,94.9192,VALID,0,VALID,20.8925,VALID,1,VALID,0,
2010-12-09, 00:24:04,VALID,917.07,VALID,0,VALID,94.9268,VALID,0,VALID,20.9316,VALID,1,VALID,0.383984,
2010-12-09, 00:25:04,VALID,917.057,VALID,0,VALID,94.9192,VALID,0,VALID,20.912,VALID,1,VALID,0.616797,
2010-12-09, 00:26:04,VALID,916.998,VALID,0,VALID,94.9878,VALID,0,VALID,20.8324,VALID,1,VALID,0.596484,
2010-12-09, 00:27:04,VALID,917.009,VALID,0,VALID,95.0869,VALID,0,VALID,20.8925,VALID,1,VALID,0.636719,
2010-12-09, 00:28:04,VALID,916.984,VALID,0,VALID,94.8658,VALID,0,VALID,20.8535,VALID,1,VALID,0.666797,
2010-12-09, 00:29:04,VALID,916.992,VALID,0,VALID,95.0488,VALID,0,VALID,20.834,VALID,1,VALID,0.928906,
2010-12-09, 00:30:04,VALID,916.977,VALID,0,VALID,95.0335,VALID,0,VALID,20.7934,VALID,1,VALID,0.711328,
2010-12-09, 00:31:04,VALID,917.008,VALID,0,VALID,95.1479,VALID,0,VALID,20.795,VALID,1,VALID,0.766016,
2010-12-09, 00:32:04,VALID,916.996,VALID,0,VALID,95.3079,VALID,0,VALID,20.795,VALID,1,VALID,0.848437,
2010-12-09, 00:33:04,VALID,916.992,VALID,0,VALID,95.3537,VALID,0,VALID,20.795,VALID,360,VALID,0.692578,
2010-12-09, 00:34:04,VALID,917.004,VALID,0,VALID,95.4528,VALID,0,VALID,20.8145,VALID,360,VALID,0.546484,
2010-12-09, 00:35:04,VALID,916.979,VALID,0,VALID,95.4757,VALID,0,VALID,20.834,VALID,360,VALID,0.412109,
2010-12-09, 00:36:04,VALID,916.979,VALID,0,VALID,95.4223,VALID,0,VALID,20.8324,VALID,360,VALID,0.409375,
2010-12-09, 00:37:04,VALID,916.953,VALID,0,VALID,95.3384,VALID,0,VALID,20.8324,VALID,360,VALID,0,
2010-12-09, 00:38:04,VALID,916.936,VALID,0,VALID,95.2622,VALID,0,VALID,20.8535,VALID,360,VALID,0,
2010-12-09, 00:39:04,VALID,916.92,VALID,0,VALID,95.2546,VALID,0,VALID,20.8324,VALID,360,VALID,0,
2010-12-09, 00:40:04,VALID,916.936,VALID,0,VALID,95.2698,VALID,0,VALID,20.8145,VALID,360,VALID,0,
2010-12-09, 00:41:04,VALID,916.953,VALID,0,VALID,95.3842,VALID,0,VALID,20.834,VALID,360,VALID,0,
2010-12-09, 00:42:04,VALID,916.926,VALID,0,VALID,95.3537,VALID,0,VALID,20.8129,VALID,360,VALID,0,
2010-12-09, 00:43:04,VALID,916.915,VALID,0,VALID,95.4223,VALID,0,VALID,20.834,VALID,360,VALID,0,
2010-12-09, 00:44:04,VALID,916.898,VALID,0,VALID,95.4757,VALID,0,VALID,20.8324,VALID,360,VALID,0,
2010-12-09, 00:45:04,VALID,916.882,VALID,0,VALID,95.5138,VALID,0,VALID,20.8519,VALID,360,VALID,0,
2010-12-09, 00:46:04,VALID,916.872,VALID,0,VALID,95.4909,VALID,0,VALID,20.8925,VALID,360,VALID,0,
2010-12-09, 00:47:04,VALID,916.849,VALID,0,VALID,95.4223,VALID,0,VALID,20.912,VALID,360,VALID,0.00117188,
2010-12-09, 00:48:04,VALID,916.831,VALID,0,VALID,95.2546,VALID,0,VALID,20.9316,VALID,360,VALID,0.494922,
2010-12-09, 00:49:04,VALID,916.792,VALID,0,VALID,95.2241,VALID,0,VALID,20.9316,VALID,360,VALID,0.734375,
2010-12-09, 00:50:04,VALID,916.822,VALID,0,VALID,95.186,VALID,0,VALID,20.9511,VALID,360,VALID,0.630078,
2010-12-09, 00:51:04,VALID,916.787,VALID,0,VALID,95.1707,VALID,0,VALID,20.93,VALID,360,VALID,0.473047,
2010-12-09, 00:52:04,VALID,916.79,VALID,0,VALID,95.2165,VALID,0,VALID,20.93,VALID,360,VALID,0.592578,
2010-12-09, 00:53:04,VALID,916.771,VALID,0,VALID,95.064,VALID,0,VALID,20.9511,VALID,360,VALID,0.853906,
2010-12-09, 00:54:04,VALID,916.804,VALID,0,VALID,94.9954,VALID,0,VALID,20.9316,VALID,360,VALID,0.265625,
2010-12-09, 00:55:04,VALID,916.763,VALID,0,VALID,95.0259,VALID,0,VALID,20.93,VALID,360,VALID,0,
2010-12-09, 00:56:04,VALID,916.787,VALID,0,VALID,95.0106,VALID,0,VALID,20.9706,VALID,360,VALID,0,
2010-12-09, 00:57:04,VALID,916.757,VALID,0,VALID,94.9039,VALID,0,VALID,20.9706,VALID,360,VALID,0,
2010-12-09, 00:58:04,VALID,916.745,VALID,0,VALID,94.7819,VALID,0,VALID,20.9495,VALID,360,VALID,0.283594,
2010-12-09, 00:59:04,VALID,916.731,VALID,0,VALID,94.7514,VALID,0,VALID,20.9511,VALID,360,VALID,0.467578,
2010-12-09, 01:00:04,VALID,916.74,VALID,0,VALID,94.7209,VALID,0,VALID,20.9316,VALID,360,VALID,0.271094,
2010-12-09, 01:01:04,VALID,916.746,VALID,0,VALID,94.7514,VALID,0,VALID,20.873,VALID,360,VALID,0.802734,
2010-12-09, 01:02:04,VALID,916.737,VALID,0,VALID,94.8505,VALID,0,VALID,20.8324,VALID,360,VALID,0.767187,
2010-12-09, 01:03:04,VALID,916.735,VALID,0,VALID,94.7743,VALID,0,VALID,20.7934,VALID,360,VALID,0.653906,
2010-12-09, 01:04:04,VALID,916.726,VALID,0,VALID,94.8734,VALID,0,VALID,20.7739,VALID,360,VALID,0.789063,
2010-12-09, 01:05:04,VALID,916.721,VALID,0,VALID,94.8582,VALID,0,VALID,20.7544,VALID,360,VALID,0.714844,
2010-12-09, 01:06:04,VALID,916.719,VALID,0,VALID,94.9954,VALID,0,VALID,20.7365,VALID,360,VALID,0.765234,
2010-12-09, 01:07:04,VALID,916.693,VALID,0,VALID,95.1021,VALID,0,VALID,20.7365,VALID,360,VALID,0.786328,
2010-12-09, 01:08:04,VALID,916.727,VALID,0,VALID,95.2012,VALID,0,VALID,20.717,VALID,360,VALID,0.772266,
2010-12-09, 01:09:04,VALID,916.686,VALID,0,VALID,95.2927,VALID,0,VALID,20.717,VALID,360,VALID,0.795313,
2010-12-09, 01:10:04,VALID,916.728,VALID,0,VALID,95.3613,VALID,0,VALID,20.6975,VALID,360,VALID,0.859766,
2010-12-09, 01:11:04,VALID,916.678,VALID,0,VALID,95.4452,VALID,0,VALID,20.717,VALID,360,VALID,1.33867,
2010-12-09, 01:12:04,VALID,916.653,VALID,0,VALID,95.5519,VALID,0,VALID,20.6959,VALID,360,VALID,0.994922,
2010-12-09, 01:13:04,VALID,916.605,VALID,0,VALID,95.6205,VALID,0,VALID,20.717,VALID,360,VALID,0.890234,
2010-12-09, 01:14:04,VALID,916.604,VALID,0,VALID,95.712,VALID,0,VALID,20.717,VALID,360,VALID,0.882813,
2010-12-09, 01:15:04,VALID,916.595,VALID,0,VALID,95.6739,VALID,0.107441,VALID,20.7349,VALID,360,VALID,0.928516,
2010-12-09, 01:16:04,VALID,916.572,VALID,0,VALID,95.6434,VALID,0,VALID,20.756,VALID,356,VALID,0.915234,
2010-12-09, 01:17:04,VALID,916.547,VALID,0,VALID,95.6129,VALID,0,VALID,20.7544,VALID,353,VALID,1.06562,
2010-12-09, 01:18:04,VALID,916.505,VALID,0,VALID,95.5062,VALID,0,VALID,20.7544,VALID,353,VALID,1.54297,
2010-12-09, 01:19:04,VALID,916.483,VALID,0,VALID,95.4528,VALID,0,VALID,20.7544,VALID,19,VALID,0.489844,
2010-12-09, 01:20:04,VALID,916.462,VALID,0,VALID,95.4299,VALID,0,VALID,20.7934,VALID,19,VALID,0.775781,
2010-12-09, 01:21:04,VALID,916.424,VALID,0,VALID,95.3689,VALID,0.107441,VALID,20.8145,VALID,13,VALID,0.633594,
2010-12-09, 01:22:04,VALID,916.399,VALID,0,VALID,95.3232,VALID,0,VALID,20.8129,VALID,358,VALID,0.9,
2010-12-09, 01:23:04,VALID,916.412,VALID,0,VALID,95.2775,VALID,0,VALID,20.8129,VALID,358,VALID,0.978125,
2010-12-09, 01:24:04,VALID,916.423,VALID,0,VALID,95.2927,VALID,0.107441,VALID,20.7934,VALID,358,VALID,1.20625,
2010-12-09, 01:25:04,VALID,916.41,VALID,0,VALID,95.4604,VALID,0.107441,VALID,20.8129,VALID,358,VALID,0.733594,
2010-12-09, 01:26:04,VALID,916.414,VALID,0,VALID,95.4604,VALID,0,VALID,20.7723,VALID,358,VALID,0.506641,
2010-12-09, 01:27:04,VALID,916.424,VALID,0,VALID,95.5443,VALID,0,VALID,20.7918,VALID,358,VALID,0.650391,
2010-12-09, 01:28:04,VALID,916.41,VALID,0,VALID,95.4985,VALID,0.107441,VALID,20.7934,VALID,358,VALID,0.851172,
2010-12-09, 01:29:04,VALID,916.377,VALID,0,VALID,95.529,VALID,0.107441,VALID,20.8129,VALID,358,VALID,1.01914,
2010-12-09, 01:30:04,VALID,916.357,VALID,0,VALID,95.5595,VALID,0,VALID,20.8145,VALID,358,VALID,0.402734,
2010-12-09, 01:31:04,VALID,916.346,VALID,0,VALID,95.6891,VALID,0,VALID,20.834,VALID,358,VALID,0.55,
2010-12-09, 01:32:04,VALID,916.304,VALID,0,VALID,95.5748,VALID,0,VALID,20.8535,VALID,358,VALID,0.292578,
2010-12-09, 01:33:04,VALID,916.285,VALID,0,VALID,95.5443,VALID,0,VALID,20.8129,VALID,358,VALID,0.511719,
2010-12-09, 01:34:04,VALID,916.294,VALID,0,VALID,95.468,VALID,0,VALID,20.8535,VALID,358,VALID,0.904688,
2010-12-09, 01:35:04,VALID,916.298,VALID,0,VALID,95.4985,VALID,0,VALID,20.8535,VALID,358,VALID,0.679688,
2010-12-09, 01:36:04,VALID,916.28,VALID,0,VALID,95.4147,VALID,0,VALID,20.8535,VALID,358,VALID,0.346094,
2010-12-09, 01:37:04,VALID,916.308,VALID,0,VALID,95.3842,VALID,0,VALID,20.8519,VALID,358,VALID,0.4875,
2010-12-09, 01:38:04,VALID,916.296,VALID,0,VALID,95.3461,VALID,0,VALID,20.8535,VALID,358,VALID,0.583203,
2010-12-09, 01:39:04,VALID,916.297,VALID,0,VALID,95.3308,VALID,0,VALID,20.8324,VALID,358,VALID,1.10469,
2010-12-09, 01:40:04,VALID,916.259,VALID,0,VALID,95.3842,VALID,0,VALID,20.8746,VALID,358,VALID,0.775,
2010-12-09, 01:41:04,VALID,916.227,VALID,0,VALID,95.3156,VALID,0,VALID,20.8324,VALID,358,VALID,1.04414,
2010-12-09, 01:42:04,VALID,916.242,VALID,0,VALID,95.3232,VALID,0,VALID,20.8129,VALID,358,VALID,0.389844,
2010-12-09, 01:43:04,VALID,916.234,VALID,0,VALID,95.3461,VALID,0,VALID,20.834,VALID,358,VALID,0.3625,
2010-12-09, 01:44:04,VALID,916.203,VALID,0,VALID,95.4147,VALID,0,VALID,20.834,VALID,358,VALID,0.641797,
2010-12-09, 01:45:04,VALID,916.221,VALID,0,VALID,95.4223,VALID,0,VALID,20.8324,VALID,358,VALID,0,
2010-12-09, 01:46:04,VALID,916.197,VALID,0,VALID,95.4375,VALID,0,VALID,20.8129,VALID,358,VALID,0,
2010-12-09, 01:47:04,VALID,916.199,VALID,0,VALID,95.3613,VALID,0,VALID,20.8324,VALID,358,VALID,0,
2010-12-09, 01:48:04,VALID,916.187,VALID,0,VALID,95.3079,VALID,0,VALID,20.834,VALID,358,VALID,0.535156,
2010-12-09, 01:49:04,VALID,916.177,VALID,0,VALID,95.2622,VALID,0,VALID,20.834,VALID,358,VALID,0.552734,
2010-12-09, 01:50:04,VALID,916.195,VALID,0,VALID,95.2927,VALID,0,VALID,20.834,VALID,358,VALID,0.149609,
2010-12-09, 01:51:04,VALID,916.197,VALID,0,VALID,95.3308,VALID,0,VALID,20.8519,VALID,358,VALID,0.40625,
2010-12-09, 01:52:04,VALID,916.237,VALID,0,VALID,95.3308,VALID,0,VALID,20.8925,VALID,358,VALID,0.0648438,
2010-12-09, 01:53:04,VALID,916.225,VALID,0,VALID,95.247,VALID,0,VALID,20.8925,VALID,358,VALID,0.291797,
2010-12-09, 01:54:04,VALID,916.256,VALID,0,VALID,95.1479,VALID,0,VALID,20.8925,VALID,358,VALID,0.414453,
2010-12-09, 01:55:04,VALID,916.239,VALID,0,VALID,95.1783,VALID,0,VALID,20.912,VALID,358,VALID,0.627734,
2010-12-09, 01:56:04,VALID,916.241,VALID,0,VALID,95.2088,VALID,0,VALID,20.9316,VALID,358,VALID,0.662891,
2010-12-09, 01:57:04,VALID,916.235,VALID,0,VALID,95.1631,VALID,0,VALID,20.9511,VALID,358,VALID,0.882422,
2010-12-09, 01:58:04,VALID,916.213,VALID,0,VALID,95.0869,VALID,0,VALID,20.93,VALID,358,VALID,0.814453,
2010-12-09, 01:59:04,VALID,916.198,VALID,0,VALID,95.0106,VALID,0,VALID,20.9105,VALID,358,VALID,0.827344,
2010-12-09, 02:00:04,VALID,916.178,VALID,0,VALID,95.0869,VALID,0,VALID,20.9316,VALID,358,VALID,1.01016,
2010-12-09, 02:01:04,VALID,916.162,VALID,0,VALID,95.1707,VALID,0,VALID,20.9105,VALID,358,VALID,0.644922,
2010-12-09, 02:02:04,VALID,916.151,VALID,0,VALID,95.1326,VALID,0,VALID,20.9316,VALID,358,VALID,0.94375,
2010-12-09, 02:03:04,VALID,916.164,VALID,0,VALID,95.0945,VALID,0,VALID,20.891,VALID,358,VALID,0.808203,
2010-12-09, 02:04:04,VALID,916.164,VALID,0,VALID,95.0945,VALID,0,VALID,20.891,VALID,358,VALID,0.677734,
2010-12-09, 02:05:04,VALID,916.133,VALID,0,VALID,95.0183,VALID,0,VALID,20.8925,VALID,358,VALID,0.578906,
2010-12-09, 02:06:04,VALID,916.177,VALID,0,VALID,95.0564,VALID,0,VALID,20.8925,VALID,358,VALID,0.460938,
2010-12-09, 02:07:04,VALID,916.165,VALID,0,VALID,95.0335,VALID,0,VALID,20.8519,VALID,358,VALID,0.909375,
2010-12-09, 02:08:04,VALID,916.165,VALID,0,VALID,95.0945,VALID,0,VALID,20.873,VALID,358,VALID,0.628125,
2010-12-09, 02:09:04,VALID,916.172,VALID,0,VALID,95.1021,VALID,0,VALID,20.873,VALID,354,VALID,0.985937,
2010-12-09, 02:10:04,VALID,916.172,VALID,0,VALID,95.064,VALID,0,VALID,20.8535,VALID,337,VALID,0.866016,
2010-12-09, 02:11:04,VALID,916.171,VALID,0,VALID,95.0716,VALID,0,VALID,20.8129,VALID,11,VALID,1.5625,
2010-12-09, 02:12:04,VALID,916.127,VALID,0,VALID,95.2088,VALID,0,VALID,20.834,VALID,12,VALID,0.716406,
2010-12-09, 02:13:04,VALID,916.127,VALID,0,VALID,95.247,VALID,0,VALID,20.834,VALID,12,VALID,0.722656,
2010-12-09, 02:14:04,VALID,916.132,VALID,0,VALID,95.1936,VALID,0,VALID,20.8129,VALID,12,VALID,0.660937,
2010-12-09, 02:15:04,VALID,916.085,VALID,0,VALID,95.2393,VALID,0,VALID,20.834,VALID,12,VALID,0.483203,
2010-12-09, 02:16:04,VALID,916.081,VALID,0,VALID,95.186,VALID,0,VALID,20.8535,VALID,352,VALID,0.713672,
2010-12-09, 02:17:04,VALID,916.067,VALID,0,VALID,95.2012,VALID,0,VALID,20.8129,VALID,352,VALID,0.303516,
2010-12-09, 02:18:04,VALID,916.057,VALID,0,VALID,95.2698,VALID,0,VALID,20.8324,VALID,352,VALID,0.247656,
2010-12-09, 02:19:04,VALID,916.045,VALID,0,VALID,95.2241,VALID,0,VALID,20.8519,VALID,352,VALID,0.346875,
2010-12-09, 02:20:04,VALID,916.052,VALID,0,VALID,95.1936,VALID,0,VALID,20.873,VALID,352,VALID,0.0699219,
2010-12-09, 02:21:04,VALID,916.04,VALID,0,VALID,95.1479,VALID,0,VALID,20.8714,VALID,352,VALID,0,
2010-12-09, 02:22:04,VALID,916.022,VALID,0,VALID,95.1326,VALID,0,VALID,20.891,VALID,352,VALID,0,
2010-12-09, 02:23:04,VALID,915.977,VALID,0,VALID,95.0335,VALID,0,VALID,20.9105,VALID,352,VALID,0.580469,
2010-12-09, 02:24:04,VALID,915.98,VALID,0,VALID,95.0183,VALID,0,VALID,20.891,VALID,352,VALID,0.493359,
2010-12-09, 02:25:04,VALID,915.976,VALID,0,VALID,95.003,VALID,0,VALID,20.9105,VALID,352,VALID,0.419922,
2010-12-09, 02:26:04,VALID,915.977,VALID,0,VALID,95.125,VALID,0,VALID,20.9105,VALID,352,VALID,0.0230469,
2010-12-09, 02:27:04,VALID,915.986,VALID,0,VALID,95.0411,VALID,0,VALID,20.9316,VALID,352,VALID,0.212891,
2010-12-09, 02:28:04,VALID,915.99,VALID,0,VALID,95.003,VALID,0,VALID,20.9316,VALID,352,VALID,0.0289063,
2010-12-09, 02:29:04,VALID,915.951,VALID,0,VALID,94.9496,VALID,0,VALID,20.9105,VALID,352,VALID,0.475,
2010-12-09, 02:30:04,VALID,915.937,VALID,0,VALID,94.9878,VALID,0,VALID,20.9511,VALID,352,VALID,0.798437,
2010-12-09, 02:31:04,VALID,915.951,VALID,0,VALID,95.0106,VALID,0,VALID,20.9511,VALID,352,VALID,0.474219,
2010-12-09, 02:32:04,VALID,915.989,VALID,0,VALID,94.9649,VALID,0,VALID,20.9706,VALID,352,VALID,0.478516,
2010-12-09, 02:33:04,VALID,915.996,VALID,0,VALID,94.9268,VALID,0,VALID,20.9495,VALID,352,VALID,0.360938,
2010-12-09, 02:34:04,VALID,916.006,VALID,0,VALID,94.8429,VALID,0,VALID,20.969,VALID,352,VALID,0.472266,
2010-12-09, 02:35:04,VALID,916.001,VALID,0,VALID,94.8124,VALID,0,VALID,20.9885,VALID,352,VALID,0.267188,
2010-12-09, 02:36:04,VALID,915.989,VALID,0,VALID,94.7667,VALID,0,VALID,21.0096,VALID,352,VALID,0.325,
2010-12-09, 02:37:04,VALID,915.992,VALID,0,VALID,94.6371,VALID,0,VALID,20.969,VALID,352,VALID,0.0339844,
2010-12-09, 02:38:04,VALID,915.96,VALID,0,VALID,94.6828,VALID,0,VALID,21.0096,VALID,352,VALID,0,
2010-12-09, 02:39:04,VALID,915.97,VALID,0,VALID,94.5913,VALID,0,VALID,20.9901,VALID,352,VALID,0,
2010-12-09, 02:40:04,VALID,915.983,VALID,0,VALID,94.5151,VALID,0,VALID,20.9885,VALID,352,VALID,0,
2010-12-09, 02:41:04,VALID,915.962,VALID,0,VALID,94.5227,VALID,0,VALID,20.9901,VALID,352,VALID,0.09375,
2010-12-09, 02:42:04,VALID,915.97,VALID,0,VALID,94.5151,VALID,0,VALID,20.9901,VALID,352,VALID,0.0175781,
2010-12-09, 02:43:04,VALID,915.975,VALID,0,VALID,94.4694,VALID,0,VALID,20.9901,VALID,352,VALID,0.0257812,
2010-12-09, 02:44:04,VALID,916.006,VALID,0,VALID,94.4236,VALID,0,VALID,21.0096,VALID,352,VALID,0.174219,
2010-12-09, 02:45:04,VALID,916,VALID,0,VALID,94.416,VALID,0,VALID,20.9901,VALID,352,VALID,0.775781,
2010-12-09, 02:46:04,VALID,915.967,VALID,0,VALID,94.3398,VALID,0,VALID,20.9495,VALID,352,VALID,0.960547,
2010-12-09, 02:47:04,VALID,915.95,VALID,0,VALID,94.3703,VALID,0,VALID,20.9722,VALID,352,VALID,1.06055,
2010-12-09, 02:48:04,VALID,915.92,VALID,0,VALID,94.4236,VALID,0,VALID,20.9316,VALID,352,VALID,0.878906,
2010-12-09, 02:49:04,VALID,915.894,VALID,0,VALID,94.4389,VALID,0,VALID,20.8925,VALID,352,VALID,0.788281,
2010-12-09, 02:50:04,VALID,915.906,VALID,0,VALID,94.4313,VALID,0,VALID,20.8925,VALID,352,VALID,0.742969,
2010-12-09, 02:51:04,VALID,915.92,VALID,0,VALID,94.4694,VALID,0,VALID,20.8535,VALID,352,VALID,0.566406,
2010-12-09, 02:52:04,VALID,915.884,VALID,0,VALID,94.5837,VALID,0,VALID,20.834,VALID,352,VALID,0.485547,
2010-12-09, 02:53:04,VALID,915.9,VALID,0,VALID,94.6523,VALID,0,VALID,20.834,VALID,352,VALID,0.502344,
2010-12-09, 02:54:04,VALID,915.905,VALID,0,VALID,94.6676,VALID,0,VALID,20.8129,VALID,352,VALID,0.640625,
2010-12-09, 02:55:04,VALID,915.889,VALID,0,VALID,94.6981,VALID,0,VALID,20.8145,VALID,352,VALID,0.460547,
2010-12-09, 02:56:04,VALID,915.875,VALID,0,VALID,94.7743,VALID,0,VALID,20.8145,VALID,352,VALID,0.632422,
2010-12-09, 02:57:04,VALID,915.877,VALID,0,VALID,94.8048,VALID,0,VALID,20.834,VALID,352,VALID,0.574609,
2010-12-09, 02:58:04,VALID,915.878,VALID,0,VALID,94.7667,VALID,0,VALID,20.8324,VALID,352,VALID,0.382813,
2010-12-09, 02:59:04,VALID,915.857,VALID,0,VALID,94.7896,VALID,0,VALID,20.8535,VALID,352,VALID,0.660547,
2010-12-09, 03:00:04,VALID,915.869,VALID,0,VALID,94.7133,VALID,0,VALID,20.8519,VALID,352,VALID,0.557031,
2010-12-09, 03:01:04,VALID,915.857,VALID,0,VALID,94.599,VALID,0,VALID,20.873,VALID,352,VALID,0.69375,
2010-12-09, 03:02:04,VALID,915.812,VALID,0,VALID,94.5913,VALID,0,VALID,20.8925,VALID,352,VALID,0.560547,
2010-12-09, 03:03:04,VALID,915.806,VALID,0,VALID,94.3321,VALID,0,VALID,20.873,VALID,352,VALID,0.6625,
2010-12-09, 03:04:04,VALID,915.803,VALID,0,VALID,94.3093,VALID,0,VALID,20.8535,VALID,352,VALID,0.682813,
2010-12-09, 03:05:04,VALID,915.8,VALID,0,VALID,94.3474,VALID,0,VALID,20.834,VALID,352,VALID,0.605469,
2010-12-09, 03:06:04,VALID,915.812,VALID,0,VALID,94.4922,VALID,0,VALID,20.795,VALID,352,VALID,0.654688,
2010-12-09, 03:07:04,VALID,915.827,VALID,0,VALID,94.6371,VALID,0,VALID,20.795,VALID,352,VALID,0.683203,
2010-12-09, 03:08:04,VALID,915.816,VALID,0,VALID,94.6371,VALID,0,VALID,20.7755,VALID,352,VALID,0.824609,
2010-12-09, 03:09:04,VALID,915.8,VALID,0,VALID,94.7286,VALID,0,VALID,20.756,VALID,352,VALID,0.900781,
2010-12-09, 03:10:04,VALID,915.783,VALID,0,VALID,94.8277,VALID,0,VALID,20.7154,VALID,352,VALID,0.725781,
2010-12-09, 03:11:04,VALID,915.816,VALID,0,VALID,94.9192,VALID,0,VALID,20.717,VALID,340,VALID,0.677344,
2010-12-09, 03:12:04,VALID,915.83,VALID,0,VALID,94.9954,VALID,0,VALID,20.6975,VALID,340,VALID,0.958594,
2010-12-09, 03:13:04,VALID,915.878,VALID,0,VALID,95.0792,VALID,0,VALID,20.6975,VALID,340,VALID,0.802344,
2010-12-09, 03:14:04,VALID,915.886,VALID,0,VALID,95.0488,VALID,0,VALID,20.678,VALID,340,VALID,1.07617,
2010-12-09, 03:15:04,VALID,915.828,VALID,0,VALID,95.1326,VALID,0,VALID,20.6374,VALID,340,VALID,0.573828,
2010-12-09, 03:16:04,VALID,915.841,VALID,0,VALID,95.186,VALID,0,VALID,20.6585,VALID,340,VALID,1.11719,
2010-12-09, 03:17:04,VALID,915.868,VALID,0,VALID,95.2317,VALID,0,VALID,20.6179,VALID,340,VALID,0.720703,
2010-12-09, 03:18:04,VALID,915.851,VALID,0,VALID,95.3156,VALID,0,VALID,20.6194,VALID,340,VALID,0.627344,
2010-12-09, 03:19:04,VALID,915.808,VALID,0,VALID,95.3766,VALID,0,VALID,20.6194,VALID,340,VALID,0.608594,
2010-12-09, 03:20:04,VALID,915.825,VALID,0,VALID,95.4299,VALID,0,VALID,20.6194,VALID,340,VALID,0.105078,
2010-12-09, 03:21:04,VALID,915.783,VALID,0,VALID,95.5062,VALID,0,VALID,20.6194,VALID,340,VALID,0.779688,
2010-12-09, 03:22:04,VALID,915.781,VALID,0,VALID,95.4985,VALID,0,VALID,20.6194,VALID,340,VALID,0.869922,
2010-12-09, 03:23:04,VALID,915.774,VALID,0,VALID,95.468,VALID,0,VALID,20.6179,VALID,340,VALID,0.520312,
2010-12-09, 03:24:04,VALID,915.769,VALID,0,VALID,95.4452,VALID,0,VALID,20.5984,VALID,340,VALID,0.357812,
2010-12-09, 03:25:04,VALID,915.753,VALID,0,VALID,95.5062,VALID,0,VALID,20.6179,VALID,340,VALID,0.330859,
2010-12-09, 03:26:04,VALID,915.76,VALID,0,VALID,95.4375,VALID,0,VALID,20.6194,VALID,340,VALID,0.413281,
2010-12-09, 03:27:04,VALID,915.762,VALID,0,VALID,95.3994,VALID,0,VALID,20.5999,VALID,340,VALID,0.490234,
2010-12-09, 03:28:04,VALID,915.764,VALID,0,VALID,95.4604,VALID,0,VALID,20.5999,VALID,340,VALID,0.251563,
2010-12-09, 03:29:04,VALID,915.779,VALID,0,VALID,95.4757,VALID,0,VALID,20.5999,VALID,340,VALID,0.0960938,
2010-12-09, 03:30:04,VALID,915.733,VALID,0,VALID,95.4452,VALID,0,VALID,20.6194,VALID,340,VALID,0.557422,
2010-12-09, 03:31:04,VALID,915.705,VALID,0,VALID,95.3766,VALID,0,VALID,20.5789,VALID,340,VALID,0.355859,
2010-12-09, 03:32:04,VALID,915.695,VALID,0,VALID,95.3537,VALID,0,VALID,20.5609,VALID,340,VALID,0.493359,
2010-12-09, 03:33:04,VALID,915.669,VALID,0,VALID,95.4147,VALID,0,VALID,20.5609,VALID,340,VALID,0.425781,
2010-12-09, 03:34:04,VALID,915.713,VALID,0,VALID,95.468,VALID,0,VALID,20.5414,VALID,340,VALID,0,
2010-12-09, 03:35:04,VALID,915.686,VALID,0,VALID,95.5748,VALID,0,VALID,20.5609,VALID,340,VALID,0,
2010-12-09, 03:36:04,VALID,915.693,VALID,0,VALID,95.529,VALID,0,VALID,20.5594,VALID,340,VALID,0,
2010-12-09, 03:37:04,VALID,915.716,VALID,0,VALID,95.4604,VALID,0,VALID,20.5609,VALID,340,VALID,0,
2010-12-09, 03:38:04,VALID,915.698,VALID,0,VALID,95.3842,VALID,0,VALID,20.5399,VALID,340,VALID,0.025,
2010-12-09, 03:39:04,VALID,915.704,VALID,0,VALID,95.3613,VALID,0,VALID,20.5399,VALID,340,VALID,0,
2010-12-09, 03:40:04,VALID,915.717,VALID,0,VALID,95.3461,VALID,0,VALID,20.5204,VALID,340,VALID,0,
2010-12-09, 03:41:04,VALID,915.676,VALID,0,VALID,95.3689,VALID,0,VALID,20.5414,VALID,340,VALID,0.0171875,
2010-12-09, 03:42:04,VALID,915.642,VALID,0,VALID,95.4071,VALID,0,VALID,20.5414,VALID,340,VALID,0,
2010-12-09, 03:43:04,VALID,915.666,VALID,0,VALID,95.4147,VALID,0,VALID,20.5024,VALID,340,VALID,0,
2010-12-09, 03:44:04,VALID,915.643,VALID,0,VALID,95.5519,VALID,0,VALID,20.5219,VALID,340,VALID,0,
2010-12-09, 03:45:04,VALID,915.668,VALID,0,VALID,95.5443,VALID,0,VALID,20.5219,VALID,340,VALID,0,
2010-12-09, 03:46:04,VALID,915.657,VALID,0,VALID,95.5214,VALID,0,VALID,20.4829,VALID,340,VALID,0,
2010-12-09, 03:47:04,VALID,915.646,VALID,0,VALID,95.5824,VALID,0,VALID,20.5024,VALID,340,VALID,0,